Tracking 32936 objects as of 17-Jan-2026
HD Live streaming from Space Station
objects crossing your sky now

DMSP 5D-2 F13 DEB

Track DMSP 5D-2 F13 DEB now!
10-day predictions


NORAD ID: 40681
Int'l Code: 1995-015FV
Perigee: 773.9 km
Apogee: 782.7 km
Inclination: 98.7 °
Period: 100.3 minutes
Semi major axis: 7149 km
RCS: Unknown
Launch date: March 24, 1995
Source: United States (US)
Launch site: AIR FORCE WESTERN TEST RANGE (AFWTR)

Note: This is SATELLITE DEBRIS
Your satellite tracking list
Your tracking list is empty




NASA's NSSDC Master Catalog

Two Line Element Set (TLE):
1 40681U 95015FV  26014.54949240  .00002366  00000-0  82649-3 0  9998
2 40681  98.7128  48.9457 0006155 160.7006 199.4414 14.36180484558650
Source of the keplerian elements: AFSPC